Wind_Speed
23 21 21 22 22 21 20 22 23 22 23 23 24 25 26 26 25 25 26 26 25 25 25 25 25 26 26 27 27 27 27 27 27 27 27 28 28 28 28 27 27 27 27 26
25 23 23 24 24 23 23 23 24 26 26 25 26 28 29 29 29 28 28 28 28 28 29 29 29 29 29 29 30 29 28 29 30 30 30 31 31 31 31 31 30 30 29 28
26 25 25 25 24 24 25 26 27 29 29 28 30 30 31 31 31 32 31 31 31 30 31 31 31 31 31 31 32 32 32 32 32 33 33 33 33 33 33 33 32 32 31 30
29 27 29 27 26 26 27 28 29 30 29 30 32 34 34 34 34 34 35 34 33 33 33 33 33 33 33 33 33 33 34 34 34 35 35 35 36 35 35 35 35 34 33 33
30 30 30 27 27 28 29 30 30 30 31 32 32 34 34 35 35 36 37 37 36 35 35 35 35 35 35 35 35 35 35 35 35 36 36 36 36 37 37 37 36 35 35 35
32 30 30 30 30 31 30 32 33 33 34 34 34 34 35 35 37 37 37 37 37 36 36 36 36 37 37 37 37 37 37 37 36 36 36 36 37 38 38 38 38 38 37 36
31 31 31 32 32 33 33 34 33 34 35 35 35 35 35 36 37 38 38 38 38 37 37 37 38 38 38 37 38 38 38 38 38 37 37 37 37 38 39 39 39 39 39 38
31 31 32 33 34 34 36 36 36 36 36 36 36 37 38 38 37 38 39 39 38 38 38 38 38 39 39 39 39 39 39 39 39 39 38 38 39 40 40 40 40 40 40 39
32 34 34 34 35 36 36 36 36 37 37 38 38 38 38 38 38 38 39 39 39 40 40 40 40 39 40 40 40 40 41 40 39 40 40 40 41 41 41 41 42 41 41 40
35 35 36 36 37 36 36 37 37 37 39 39 39 39 39 39 38 38 39 39 40 40 40 40 41 41 41 41 41 42 42 42 42 42 42 42 42 42 42 42 42 41 41 40
36 37 36 37 37 37 37 37 38 39 39 39 39 39 40 39 39 39 39 39 39 40 40 41 41 42 43 43 43 43 43 43 43 44 43 43 43 42 42 41 41 41 40 39
36 37 37 38 38 38 38 38 39 39 40 40 40 40 40 40 40 40 40 40 40 40 41 42 42 42 43 43 44 44 44 44 44 44 44 44 43 42 42 42 41 40 40 39
36 36 36 37 37 38 39 39 40 40 39 39 40 40 40 40 40 41 41 40 41 41 41 41 42 43 44 45 45 45 45 45 45 44 44 44 43 43 42 41 40 39 39 38
34 34 35 36 36 36 37 37 38 39 39 40 40 40 39 40 41 41 41 41 41 41 41 42 42 43 44 44 44 44 45 45 45 44 44 43 43 42 41 40 40 40 39 38
32 33 33 34 34 35 35 36 36 37 38 39 39 39 40 41 41 41 41 42 42 42 42 43 43 43 44 44 45 45 45 46 45 44 43 43 42 41 40 40 40 40 39 38
30 31 32 32 32 33 34 34 35 36 37 38 38 39 39 40 40 40 41 42 42 42 42 42 42 42 42 43 43 44 44 44 44 43 43 41 40 39 39 39 40 40 39 38
29 30 30 31 31 32 32 32 32 33 34 35 36 37 37 38 38 39 39 39 40 40 40 40 40 40 40 40 40 40 40 40 40 40 40 38 37 37 38 38 38 38 37 37
28 28 29 29 29 30 30 31 31 31 32 33 33 34 35 35 36 37 37 37 37 37 37 37 37 37 37 37 37 38 38 38 38 38 38 37 36 36 36 36 36 36 36 35
24 25 26 26 27 27 28 28 28 29 30 31 32 32 32 32 33 33 34 34 34 35 35 35 35 35 35 35 35 35 35 36 36 36 36 36 36 36 36 37 36 36 35 34
23 24 24 24 25 25 26 26 27 28 28 29 30 29 30 31 31 32 32 32 32 32 32 33 33 33 33 33 33 33 33 33 33 33 34 34 35 35 34 35 34 33 34 34
22 22 23 23 24 24 24 25 25 26 26 27 28 28 28 29 29 30 30 30 30 30 30 31 31 30 30 30 30 30 30 30 30 31 32 33 32 32 32 32 32 31 30 30
21 22 22 23 23 23 24 24 25 25 25 26 26 26 26 26 26 27 28 28 28 28 28 28 28 27 26 26 27 27 28 28 28 29 29 30 30 29 29 29 29 29 29 28
20 21 21 21 21 22 22 23 24 24 24 25 25 25 25 25 25 26 26 26 26 25 26 25 25 25 25 25 25 25 26 26 26 26 27 27 27 28 28 28 27 28 28 28
20 20 20 20 21 21 22 22 23 23 23 24 24 24 25 25 24 25 25 25 24 25 25 24 24 24 23 23 24 25 25 25 25 25 24 24 25 25 26 26 27 27 28 28
19 19 19 19 20 20 21 21 22 22 22 23 23 24 24 24 24 24 24 24 24 24 24 23 23 23 22 22 23 23 23 23 23 23 23 23 23 23 24 25 26 27 27 27
18 18 18 19 20 20 20 21 22 22 23 23 23 23 24 24 24 24 23 23 23 23 22 23 22 22 22 22 22 22 22 22 23 23 23 22 22 22 23 24 25 25 25 26
18 18 19 19 20 20 20 21 21 22 22 22 22 23 23 23 23 23 23 23 23 23 22 22 22 22 22 21 21 22 22 22 21 22 22 21 21 21 21 22 23 24 26 27
Wind_Direction
242 239 244 248 248 248 248 248 250 257 257 259 264 268 273 276 276 276 278 279 278 278 279 280 281 281 282 283 282 283 282 283 284 284 284 281 281 278 279 280 280 281 282 281
246 243 247 252 255 256 255 256 258 257 261 261 261 266 271 276 277 276 277 278 278 278 278 279 279 279 280 280 281 282 282 282 284 284 283 282 280 276 277 278 278 279 281 281
249 247 250 253 255 256 257 255 255 257 259 261 265 267 271 274 276 277 278 277 276 277 278 278 278 278 278 277 280 280 281 282 282 284 283 283 280 276 276 277 278 279 279 281
252 252 253 255 255 255 256 257 257 260 261 262 266 269 272 274 275 276 278 279 278 278 278 277 277 277 278 278 278 279 280 280 281 282 282 282 280 277 276 277 277 278 280 281
253 256 259 257 258 258 257 257 257 259 261 263 266 270 272 274 275 275 277 279 280 279 279 278 277 277 277 278 278 278 278 279 280 280 280 281 280 279 277 278 278 278 279 280
254 255 257 255 255 257 258 260 259 261 263 265 268 270 272 274 275 276 278 280 280 280 279 278 277 277 277 277 278 278 278 279 279 280 280 280 279 278 278 277 278 279 279 279
256 256 257 257 258 259 256 258 261 263 266 268 271 270 272 274 275 276 278 280 280 279 278 277 276 275 275 277 277 277 277 278 279 280 280 279 278 278 278 278 278 279 279 279
254 253 254 257 257 258 260 262 263 265 267 269 271 272 272 273 275 277 278 279 279 279 278 278 276 275 275 276 277 277 278 278 279 279 279 279 278 277 277 278 279 279 279 278
253 253 256 258 259 259 260 263 265 267 267 268 271 273 273 274 276 277 278 279 278 278 279 277 276 275 273 275 276 277 277 277 277 278 278 279 279 279 278 278 278 278 278 277
252 254 255 257 259 260 261 263 265 267 268 269 271 272 273 274 276 278 278 278 279 279 279 278 276 275 274 274 275 275 276 277 277 277 278 278 279 279 279 278 277 277 276 276
253 254 254 256 258 261 262 264 265 267 269 270 271 272 274 275 277 278 279 280 281 280 279 278 277 275 274 275 275 276 276 276 277 277 277 278 278 279 278 277 276 275 274 275
254 258 260 260 261 263 265 266 267 268 268 269 271 273 274 275 277 279 280 281 281 281 280 279 278 276 274 274 275 276 276 276 276 277 278 278 278 278 278 277 276 274 273 274
259 261 262 264 264 265 265 265 267 268 270 270 272 275 276 277 278 279 280 281 281 281 281 281 280 278 276 276 275 275 276 276 276 276 277 277 277 278 277 276 276 275 274 273
261 263 265 266 266 268 268 268 269 269 270 272 273 275 278 279 279 280 281 281 281 282 281 281 281 280 280 277 276 276 275 276 275 275 276 275 276 275 275 275 274 275 275 274
263 265 267 269 269 269 270 270 271 271 272 273 274 276 278 279 279 280 281 281 282 282 282 282 282 282 282 280 279 278 276 276 277 275 274 275 275 274 273 273 273 274 275 274
264 266 269 270 271 272 272 272 272 272 274 275 277 278 279 279 280 281 281 282 282 283 283 283 283 283 282 281 280 279 278 277 276 275 274 273 272 272 271 271 273 274 274 274
267 268 270 271 273 275 275 275 275 276 277 278 279 280 281 281 282 283 283 283 282 283 283 284 284 283 282 282 280 279 277 276 275 273 272 272 272 272 271 271 272 273 274 274
270 270 272 273 275 276 277 277 278 278 280 281 282 283 283 283 284 284 285 285 285 285 285 285 285 284 283 282 281 279 277 276 274 272 271 271 270 270 270 271 272 273 273 272
271 272 274 276 278 279 279 279 280 281 282 283 284 284 285 286 286 287 288 289 288 288 287 286 285 284 284 284 282 280 278 276 275 273 271 270 269 269 270 271 271 270 270 270
272 274 277 279 280 281 281 282 284 286 286 286 287 288 288 288 289 289 290 290 290 290 289 288 288 287 285 285 282 280 279 278 276 273 272 271 270 269 269 270 270 270 268 268
273 276 279 281 281 282 282 284 286 288 290 291 292 293 293 292 291 291 291 292 293 292 291 290 290 288 287 286 284 282 280 279 278 276 274 272 270 270 270 269 270 270 268 267
276 277 281 282 282 283 284 285 287 288 290 293 295 295 295 295 295 295 294 295 295 295 294 293 291 289 287 287 286 284 283 282 280 277 275 274 273 272 270 269 268 268 269 270
279 279 280 282 285 288 289 290 290 291 293 296 298 298 298 299 300 299 298 298 298 298 296 295 294 292 290 289 289 288 286 285 283 280 277 274 272 272 271 269 269 270 271 272
279 281 282 284 287 289 290 292 294 296 297 298 300 300 301 301 300 299 300 300 300 299 297 294 294 296 295 292 290 289 287 285 284 282 281 278 275 272 270 270 270 271 272 273
280 284 288 291 292 292 294 295 296 298 299 300 301 302 302 303 302 302 302 302 302 300 298 296 295 295 294 293 292 292 290 286 285 284 280 279 277 275 273 271 271 272 273 274
284 286 287 289 292 294 294 295 296 298 299 301 302 302 303 304 304 304 304 305 306 304 301 299 297 298 297 294 293 294 293 289 286 285 285 281 277 275 275 274 273 273 273 274
285 287 288 291 293 294 295 296 298 298 299 301 303 304 304 305 305 306 306 307 309 309 306 304 302 301 301 299 297 296 295 291 288 287 286 283 279 276 276 277 276 275 275 275
Height
5876 5879 5881 5882 5883 5884 5885 5886 5887 5887 5885 5884 5882 5881 5880 5880 5880 5880 5880 5880 5880 5880 5879 5878 5878 5877 5876 5875 5874 5873 5872 5872 5872 5872 5871 5871 5870 5870 5870 5869 5869 5868 5868 5867
5870 5872 5874 5876 5878 5878 5879 5881 5881 5880 5878 5877 5876 5875 5875 5874 5873 5873 5873 5873 5874 5873 5873 5872 5871 5871 5870 5869 5867 5866 5865 5865 5865 5865 5864 5863 5862 5862 5862 5861 5861 5861 5860 5860
5863 5865 5866 5869 5872 5872 5872 5873 5874 5872 5872 5871 5870 5868 5868 5867 5867 5866 5866 5866 5866 5866 5865 5864 5864 5863 5862 5861 5860 5859 5859 5858 5857 5856 5856 5855 5853 5853 5853 5852 5852 5852 5852 5851
5856 5859 5859 5865 5864 5864 5865 5864 5865 5864 5863 5863 5862 5861 5861 5860 5859 5858 5858 5857 5857 5857 5856 5855 5855 5854 5853 5853 5852 5851 5850 5850 5849 5848 5847 5845 5844 5844 5843 5843 5842 5842 5842 5841
5848 5850 5851 5855 5855 5855 5855 5855 5855 5855 5855 5854 5854 5853 5852 5851 5850 5850 5849 5849 5848 5848 5847 5846 5846 5845 5845 5844 5843 5842 5841 5841 5840 5839 5837 5836 5835 5834 5834 5833 5833 5833 5832 5832
5840 5841 5843 5845 5846 5845 5847 5845 5845 5845 5845 5845 5845 5845 5843 5841 5841 5840 5840 5839 5838 5838 5837 5837 5836 5835 5835 5834 5833 5833 5832 5831 5829 5828 5827 5826 5825 5825 5824 5824 5823 5823 5822 5821
5831 5832 5834 5834 5835 5836 5837 5835 5836 5835 5835 5835 5834 5834 5833 5832 5831 5831 5830 5829 5828 5828 5827 5826 5826 5825 5824 5824 5823 5822 5821 5820 5819 5818 5817 5816 5815 5814 5814 5813 5813 5812 5812 5811
5822 5824 5826 5825 5825 5826 5825 5825 5826 5826 5825 5825 5824 5824 5823 5823 5822 5821 5819 5818 5818 5817 5816 5816 5815 5815 5814 5813 5812 5811 5810 5809 5808 5808 5806 5805 5804 5804 5803 5802 5801 5801 5800 5800
5813 5815 5814 5814 5815 5815 5815 5816 5816 5816 5815 5815 5814 5813 5813 5813 5812 5811 5809 5808 5807 5806 5806 5805 5804 5804 5803 5802 5801 5800 5799 5799 5798 5797 5795 5794 5793 5792 5792 5791 5790 5789 5789 5788
5802 5803 5804 5804 5804 5804 5805 5806 5806 5806 5805 5805 5804 5803 5803 5802 5802 5801 5799 5798 5797 5795 5794 5793 5792 5792 5791 5791 5790 5789 5788 5787 5786 5785 5784 5783 5782 5781 5780 5779 5778 5777 5777 5776
5792 5792 5794 5794 5794 5795 5795 5795 5796 5795 5794 5794 5794 5793 5792 5792 5791 5790 5789 5787 5786 5784 5783 5781 5780 5779 5779 5778 5777 5776 5775 5775 5774 5773 5772 5771 5770 5769 5767 5767 5766 5765 5764 5764
5782 5783 5784 5785 5785 5785 5785 5785 5784 5784 5784 5784 5783 5783 5782 5781 5780 5779 5777 5776 5774 5773 5771 5770 5768 5767 5766 5765 5764 5764 5763 5762 5761 5760 5760 5758 5757 5756 5755 5754 5753 5752 5752 5752
5773 5774 5774 5774 5774 5775 5774 5774 5774 5773 5773 5773 5772 5772 5770 5769 5768 5767 5766 5764 5763 5761 5759 5758 5756 5755 5753 5752 5751 5750 5749 5748 5747 5747 5746 5745 5744 5743 5742 5742 5740 5740 5740 5740
5764 5764 5764 5764 5764 5764 5763 5763 5763 5762 5762 5762 5762 5761 5759 5758 5757 5756 5754 5752 5751 5749 5747 5746 5744 5742 5740 5738 5737 5736 5735 5734 5733 5733 5733 5732 5731 5730 5729 5729 5728 5728 5728 5728
5755 5755 5755 5755 5754 5754 5753 5753 5752 5752 5751 5751 5750 5749 5748 5746 5745 5744 5742 5740 5739 5737 5735 5733 5731 5730 5727 5725 5724 5722 5722 5720 5719 5719 5719 5719 5718 5717 5717 5716 5716 5716 5716 5716
5746 5746 5746 5745 5745 5744 5743 5743 5742 5741 5741 5740 5739 5738 5737 5735 5734 5732 5730 5728 5726 5724 5722 5720 5719 5717 5715 5713 5711 5710 5709 5708 5707 5706 5706 5706 5706 5705 5705 5705 5705 5705 5705 5705
5738 5738 5737 5737 5736 5735 5734 5733 5732 5732 5731 5730 5728 5727 5725 5724 5722 5721 5719 5716 5714 5712 5710 5708 5706 5704 5702 5700 5699 5697 5696 5695 5694 5694 5694 5694 5694 5694 5694 5693 5693 5693 5694 5694
5730 5729 5729 5728 5727 5727 5726 5725 5723 5722 5721 5720 5718 5717 5715 5713 5712 5709 5707 5705 5703 5701 5699 5696 5694 5692 5690 5688 5687 5685 5683 5682 5682 5682 5682 5682 5682 5682 5682 5682 5682 5682 5682 5682
5722 5722 5721 5721 5720 5719 5717 5716 5715 5714 5712 5710 5709 5707 5705 5703 5701 5699 5697 5694 5692 5690 5688 5685 5683 5681 5679 5677 5675 5674 5673 5671 5670 5670 5670 5670 5670 5670 5671 5671 5670 5670 5670 5671
5716 5715 5714 5713 5713 5711 5710 5709 5707 5706 5704 5702 5700 5698 5696 5694 5692 5690 5687 5685 5682 5680 5677 5675 5672 5670 5668 5666 5665 5663 5661 5660 5659 5659 5659 5659 5659 5659 5659 5659 5659 5658 5658 5659
5709 5708 5708 5707 5705 5704 5703 5701 5700 5698 5696 5694 5692 5690 5687 5685 5683 5680 5678 5676 5673 5670 5668 5665 5663 5661 5659 5657 5655 5653 5651 5650 5649 5649 5649 5649 5648 5648 5649 5649 5649 5649 5648 5649
5703 5702 5701 5700 5699 5698 5696 5695 5693 5691 5689 5687 5684 5682 5680 5677 5675 5672 5670 5667 5664 5662 5659 5656 5654 5652 5650 5648 5646 5644 5642 5641 5640 5639 5639 5638 5638 5638 5639 5639 5640 5640 5641 5641
5697 5696 5695 5694 5693 5692 5690 5688 5686 5684 5683 5680 5678 5675 5673 5670 5668 5665 5663 5660 5657 5654 5651 5648 5646 5644 5642 5640 5637 5635 5634 5633 5631 5630 5630 5629 5629 5629 5630 5630 5631 5632 5632 5633
5692 5691 5689 5688 5687 5686 5684 5682 5681 5678 5676 5674 5672 5669 5667 5664 5661 5659 5656 5653 5650 5647 5644 5642 5639 5637 5634 5633 5630 5628 5627 5625 5624 5623 5622 5622 5621 5621 5622 5622 5623 5623 5623 5624
5686 5685 5684 5683 5682 5680 5678 5676 5674 5673 5670 5668 5666 5663 5661 5658 5655 5652 5649 5646 5644 5641 5638 5636 5633 5630 5628 5626 5624 5622 5620 5618 5617 5615 5615 5614 5614 5614 5614 5614 5614 5615 5615 5615
5681 5680 5679 5678 5676 5675 5673 5671 5669 5667 5665 5662 5660 5658 5655 5652 5649 5646 5643 5640 5637 5634 5632 5629 5626 5624 5621 5619 5617 5615 5613 5612 5610 5609 5608 5607 5606 5606 5606 5606 5606 5606 5606 5606
5676 5675 5674 5672 5671 5669 5668 5666 5664 5661 5659 5657 5654 5652 5649 5646 5643 5640 5637 5634 5631 5628 5625 5623 5620 5617 5615 5613 5611 5609 5607 5605 5603 5602 5601 5600 5599 5599 5598 5597 5597 5597 5597 5597